Weather History for LFPC - March, 2013

Change the Weather History Date:

Thursday, March 21, 2013

  Actual Average (LFPG) Record (LFPG)
Temperature  
Mean Temperature 37 °F -  
Max Temperature 46 °F 56 °F 64 °F (2005)
Min Temperature 28 °F 41 °F 32 °F (2009)
Degree Days  
Heating Degree Days 28    
Moisture  
Dew Point 34 °F    
Average Humidity 81    
Maximum Humidity 100    
Minimum Humidity 66    
Precipitation  
Precipitation 0.00 in - - ()
Sea Level Pressure  
Sea Level Pressure 30.00 in    
Wind  
Wind Speed 4 mph ()    
Max Wind Speed 12 mph    
Max Gust Speed -    
Visibility 3.0 miles    
Events Fog , Rain    
Averages and records for this station are not official NWS values.
T = Trace of Precipitation, MM = Missing Value Source: Averaged Metar Reports

Daily Weather History Graph

Daily Weather History Graph

Search for Another Location

Airport or City:

Trip Planner

Search our weather history database for the weather conditions in past years. The results will help you decide how hot, cold, wet, or windy it might be!

Date:

Astronomy

Mar. 21, 2013 Rise Set
Actual Time 6:50 AM CET 7:04 PM CET
Civil Twilight 6:18 AM CET 7:36 PM CET
Nautical Twilight 5:41 AM CET 8:13 PM CET
Astronomical Twilight 5:02 AM CET 8:52 PM CET
Moon 12:53 PM CET (3/21) 3:29 AM CET (3/21)
Length of Visible Light 13h 17m
Length of Day
12h 13m
Waxing Gibbous, 66% of the Moon is Illuminated
Mar 21
Waxing Gibbous
Mar 27
Full
Apr 3
Last Quarter
Apr 10
New
Apr 18
First Quarter

Hourly Weather History & Observations

Time (CET) Temp. Windchill Dew Point Humidity Pressure Visibility Wind Dir Wind Speed Gust Speed Precip Events Conditions
12:00 AM 32.0 °F - 30.2 °F 93% 29.98 in 0.5 mi Calm Calm - N/A Fog Fog
12:30 AM 30.2 °F - 30.2 °F 100% 29.98 in 1.4 mi Calm Calm - N/A   Mist
1:00 AM 30.2 °F - 30.2 °F 100% 30.01 in 0.9 mi Calm Calm - N/A   Mostly Cloudy
1:30 AM 32.0 °F - 30.2 °F 93% 30.01 in 1.0 mi ESE 2.3 mph - N/A   Mostly Cloudy
2:00 AM 32.0 °F - 30.2 °F 93% 30.01 in 1.1 mi Calm Calm - N/A   Mostly Cloudy
2:30 AM 32.0 °F - 32.0 °F 100% 30.01 in 1.2 mi Calm Calm - N/A   Mostly Cloudy
3:00 AM 32.0 °F 28.7 °F 30.2 °F 93% 30.01 in 0.6 mi ENE 3.5 mph - N/A   Partly Cloudy
3:30 AM 30.2 °F - 30.2 °F 100% 30.01 in 0.6 mi NE 2.3 mph - N/A   Partly Cloudy
4:00 AM 28.4 °F 24.6 °F 28.4 °F 100% 30.01 in 0.9 mi NE 3.5 mph - N/A   Scattered Clouds
4:30 AM 28.4 °F - 28.4 °F 100% 30.01 in 0.2 mi North 2.3 mph - N/A Fog Light Freezing Fog
5:00 AM 32.0 °F - 30.2 °F 93% 30.01 in 0.8 mi East 1.2 mph - N/A   Overcast
5:30 AM 33.8 °F 28.6 °F 33.8 °F 100% 30.01 in - East 5.8 mph - N/A   Overcast
6:00 AM 33.8 °F 29.6 °F 33.8 °F 100% 30.01 in 1.7 mi East 4.6 mph - N/A   Overcast
6:30 AM 35.6 °F 30.7 °F 33.8 °F 93% 30.04 in - East 5.8 mph - N/A   Overcast
7:00 AM 33.8 °F 29.6 °F 32.0 °F 93% 30.01 in - East 4.6 mph - N/A   Overcast
7:30 AM 35.6 °F 31.7 °F 32.0 °F 87% 30.04 in - East 4.6 mph - N/A   Overcast
8:00 AM 35.6 °F 29.2 °F 32.0 °F 87% 30.04 in - East 8.1 mph - N/A   Overcast
8:30 AM 37.4 °F 31.4 °F 32.0 °F 81% 30.04 in 3.7 mi East 8.1 mph - N/A   Overcast
9:00 AM 37.4 °F 32.1 °F 32.0 °F 81% 30.04 in 4.3 mi East 6.9 mph - N/A   Mostly Cloudy
9:30 AM 39.2 °F 34.2 °F 30.2 °F 70% 30.04 in 5.0 mi ESE 6.9 mph - N/A   Overcast
10:00 AM 39.2 °F 35.0 °F 32.0 °F 75% 30.04 in 4.3 mi East 5.8 mph - N/A   Overcast
10:30 AM 41.0 °F 36.4 °F 32.0 °F 70% 30.04 in 4.3 mi East 6.9 mph - N/A   Overcast
11:00 AM 42.8 °F 37.5 °F 32.0 °F 66% 30.04 in 4.3 mi East 9.2 mph - N/A   Mostly Cloudy
11:30 AM 42.8 °F 37.0 °F 33.8 °F 70% 30.04 in 3.7 mi ESE 10.4 mph - N/A   Mostly Cloudy
12:00 PM 42.8 °F 37.0 °F 33.8 °F 70% 30.04 in 3.7 mi East 10.4 mph - N/A   Mostly Cloudy
12:30 PM 44.6 °F 38.8 °F 35.6 °F 71% 30.01 in 3.7 mi East 11.5 mph - N/A   Unknown
1:00 PM 44.6 °F 40.2 °F 35.6 °F 71% 30.04 in 3.7 mi ESE 8.1 mph - N/A   Mostly Cloudy
1:30 PM 44.6 °F 40.2 °F 35.6 °F 71% 30.01 in 3.7 mi SE 8.1 mph - N/A   Overcast
2:00 PM 44.6 °F 39.7 °F 35.6 °F 71% 30.01 in 3.7 mi ESE 9.2 mph - N/A   Unknown
2:30 PM 46.4 °F 42.4 °F 35.6 °F 66% 30.01 in 3.7 mi ESE 8.1 mph - N/A   Unknown
3:00 PM 46.4 °F 41.5 °F 37.4 °F 71% 29.98 in 3.7 mi ESE 10.4 mph - N/A   Unknown
3:30 PM 46.4 °F 41.9 °F 37.4 °F 71% 29.98 in 4.3 mi ESE 9.2 mph - N/A   Unknown
4:00 PM 46.4 °F 42.4 °F 35.6 °F 66% 29.98 in 4.3 mi SE 8.1 mph - N/A   Mostly Cloudy
4:30 PM 46.4 °F 41.9 °F 37.4 °F 71% 29.98 in 4.3 mi SE 9.2 mph - N/A   Unknown
5:00 PM 46.4 °F 41.5 °F 37.4 °F 71% 29.98 in 4.3 mi ESE 10.4 mph - N/A   Mostly Cloudy
5:30 PM 46.4 °F 41.9 °F 37.4 °F 71% 29.95 in 4.3 mi ESE 9.2 mph - N/A   Mostly Cloudy
6:00 PM 46.4 °F 42.9 °F 37.4 °F 71% 29.95 in 4.3 mi ESE 6.9 mph - N/A   Unknown
6:30 PM 46.4 °F 42.9 °F 37.4 °F 71% 29.95 in 4.3 mi ESE 6.9 mph - N/A   Unknown
7:00 PM 46.4 °F 43.5 °F 37.4 °F 71% 29.98 in 3.7 mi East 5.8 mph - N/A   Unknown
7:30 PM 44.6 °F 40.7 °F 37.4 °F 76% 29.98 in 3.7 mi East 6.9 mph - N/A   Unknown
8:00 PM 44.6 °F 42.2 °F 37.4 °F 76% 29.98 in 3.7 mi ENE 4.6 mph - N/A   Unknown
8:30 PM 44.6 °F 42.2 °F 37.4 °F 76% 29.98 in 3.1 mi East 4.6 mph - N/A Rain Light Rain
9:00 PM 44.6 °F 40.2 °F 37.4 °F 76% 29.98 in 3.1 mi East 8.1 mph - N/A   Mostly Cloudy
9:30 PM 44.6 °F 39.7 °F 37.4 °F 76% 29.95 in 4.3 mi East 9.2 mph - N/A Rain Light Rain
10:00 PM 44.6 °F 40.2 °F 37.4 °F 76% 29.95 in 3.7 mi East 8.1 mph - N/A Rain Light Rain
10:30 PM 42.8 °F 38.0 °F 37.4 °F 81% 29.95 in - ESE 8.1 mph - N/A Rain Light Rain
11:00 PM 42.8 °F 37.5 °F 37.4 °F 81% 29.95 in 2.5 mi East 9.2 mph - N/A Rain Light Rain
11:30 PM 42.8 °F 37.5 °F 37.4 °F 81% 29.95 in - East 9.2 mph - N/A   Light Drizzle